Location: Aigremont
(47.7188°N, 3.8925°E)
Time: 02:45:52
(UTC+00:00)

CZ-2C R/B - Pass Details

Date: 18 February 2020
Orbit: 667 x 785 km, 98.1° (Epoch: 03 April)

Event Time Altitude Azimuth Distance (km) Brightness Sun altitude
Rises 05:29:45 0° 3° (N) 3,289 5.8 -13.5°
Reaches altitude 10° 05:32:33 10° 348° (NNW) 2,353 4.9 -13.0°
Maximum altitude 05:36:24 22° 300° (WNW) 1,677 3.7 -12.4°
Enters shadow 05:38:41 16° 267° (W) 1,929 3.9 -12.0°
